Skip Page Navigation
NASA JPL Caltech
NASA Logo - Jet Propulsion Laboratory + View the NASA Portal
+ Center for Near-Earth Object Studies
JPL Home Earth Solar System Stars & Galaxies Technology
JPL Solar System Dynamics
BODIES ORBITS EPHEMERIDES TOOLS PHYSICAL DATA DISCOVERY FAQ SITE MAP
JPL Small-Body Database Browser
Search: [ help ]  
212244 (2005 JU57)
Classification: Main-belt Asteroid          SPK-ID: 2212244
Ephemeris | Orbit Diagram | Orbital Elements | Mission Design | Physical Parameters | Discovery Circumstances | Close-Approach Data ]

[ show orbit diagram ]
Orbital Elements at Epoch 2459000.5 (2020-May-31.0) TDB
Reference: JPL 8 (heliocentric ecliptic J2000)
 Element Value Uncertainty (1-sigma)   Units 
e .01077462167050518 9.6348e-08  
a 2.701041185464343 3.9164e-08 au
q 2.671938488574512 2.45e-07 au
i .8568990845388265 8.4719e-06 deg
node 291.6115287286979 0.00065116 deg
peri 258.2855056857288 0.00076843 deg
M 179.0854519681319 0.00041187 deg
tp 2458193.909610775085
(2018-Mar-16.40961078)
0.0018503 TDB
period 1621.41892001725
4.44
3.5265e-05
9.655e-08
d
yr
n .2220277533187845 4.829e-09 deg/d
Q 2.730143882354175 3.9586e-08 au
  Orbit Determination Parameters
   # obs. used (total)      131  
   data-arc span      8499 days (23.27 yr)  
   first obs. used      1995-01-07  
   last obs. used      2018-04-15  
   planetary ephem.      DE431  
   SB-pert. ephem.      SB431-N16  
   condition code      0  
   norm. resid. RMS      .62301  
   source      ORB  
   producer      Otto Matic  
   solution date      2019-Jul-14 03:55:41  

Additional Information
 Earth MOID = 1.66833 au 
 Jupiter MOID = 2.22888 au 
 T_jup = 3.367 
[ show covariance matrix ]

Ephemeris | Orbit Diagram | Orbital Elements | Mission Design | Physical Parameters | Discovery Circumstances | Close-Approach Data ]

Physical Parameter Table
Parameter Symbol Value Units Sigma Reference Notes
absolute magnitude H 17.0   n/a MPO450007  

212244 (2005 JU57)          Discovered 2005-May-07 by Spacewatch at Kitt Peak
Reference: 20090409/Numbers.arcLast Updated: 2009-04-10

[ hide close-approach data ]
Close-Approach Data   ...sorted by Date/Time (TDB)
Date/Time (TDB) Time Uncertainty
(days_HH:MM)
Body Nominal Distance (au) Minimum Distance (au) Maximum Distance (au) V-relative (km/s) V-infinity (km/s) JD (TDB) Time Uncertainty (minutes) Semi-major axis (km) Semi-minor axis (km) range-LOV angle (deg) N-sigma BP Orbit Ref. Reference Modified
2124-Jul-09 10:52 00:04 Juno 0.0449125315405372 0.0448661462689063 0.0449589169879702 6.17785613471203 6.17785609086495 2497024.952597167 4.10923558008207 2316.20802385853 79.6577821793058 3.44031590760246 5827.56321757719 T 8 CATAB v2.0e-lin.ifort 2019-Jul-14 03:55:45 2019-Jul-14 03:55

Alternate Designations
 2005 JU57 = 2004 BQ128 
Ephemeris | Orbit Diagram | Orbital Elements | Mission Design | Physical Parameters | Discovery Circumstances | Close-Approach Data ]
ABOUT SSD CREDITS/AWARDS PRIVACY/COPYRIGHT GLOSSARY LINKS
FirstGov 2020-Aug-11 08:22 UT
(server date/time)  
NASA Home Page
Site Manager:   Ryan S. Park
Webmaster  Alan B. Chamberlin